Change the Weather History Date:

Monday, March 26, 2012

  Actual Average Record
Temperature  
Mean Temperature 42 °F 40 °F  
Max Temperature 52 °F 52 °F 73 °F (1949)
Min Temperature 32 °F 29 °F 14 °F (1960)
Degree Days  
Heating Degree Days 23 25  
Month to date heating degree days 413 757  
Since 1 July heating degree days 4104 5328  
Cooling Degree Days 0 0  
Month to date cooling degree days 0 0  
Year to date cooling degree days 0 0  
Moisture  
Dew Point 19 °F    
Average Humidity 56    
Maximum Humidity 92    
Minimum Humidity 20    
Precipitation  
Precipitation 0.00 in 0.12 in 0.92 in (1973)
Month to date precipitation 0.65 2.98  
Year to date precipitation 4.26 8.72  
Sea Level Pressure  
Sea Level Pressure 29.85 in    
Wind  
Wind Speed 11 mph (NNW)    
Max Wind Speed 26 mph    
Max Gust Speed 37 mph    
Visibility 10 miles    
Events      
T = Trace of Precipitation, MM = Missing Value Source: NWS Daily Summary

Daily Weather History Graph

Daily Weather History Graph

Search for Another Location

Airport or City:

Trip Planner

Search our weather history database for the weather conditions in past years. The results will help you decide how hot, cold, wet, or windy it might be!

Date:

Astronomy

Mar. 26, 2012 Rise Set
Actual Time 6:47 AM EDT 7:14 PM EDT
Civil Twilight 6:20 AM EDT 7:42 PM EDT
Nautical Twilight 5:47 AM EDT 8:15 PM EDT
Astronomical Twilight 5:13 AM EDT 8:49 PM EDT
Moon 8:31 AM EDT (3/26) 11:26 PM EDT (3/26)
Length of Visible Light 13h 22m
Length of Day
12h 26m
Waxing Crescent, 14% of the Moon is Illuminated
Mar 26
Waxing Crescent
Mar 30
First Quarter
Apr 6
Full
Apr 13
Last Quarter
Apr 21
New

Hourly Weather History & Observations

Time (EDT) Temp. Windchill Dew Point Humidity Pressure Visibility Wind Dir Wind Speed Gust Speed Precip Events Conditions
12:53 AM 44.1 °F - 39.0 °F 82% 29.73 in 10.0 mi Calm Calm - N/A   Partly Cloudy
1:53 AM 42.1 °F - 37.9 °F 85% 29.71 in 10.0 mi Calm Calm - N/A   Partly Cloudy
2:53 AM 39.0 °F - 36.0 °F 89% 29.70 in 10.0 mi Calm Calm - N/A   Partly Cloudy
3:53 AM 37.9 °F - 36.0 °F 93% 29.68 in 10.0 mi Calm Calm - N/A   Clear
4:53 AM 37.0 °F - 35.1 °F 93% 29.68 in 10.0 mi Calm Calm - N/A   Clear
5:53 AM 36.0 °F - 33.1 °F 89% 29.67 in 10.0 mi Calm Calm - N/A   Clear
6:53 AM 37.0 °F - 34.0 °F 89% 29.70 in 10.0 mi Calm Calm - N/A   Clear
7:53 AM 37.9 °F - 35.1 °F 89% 29.74 in 10.0 mi Calm Calm - N/A   Partly Cloudy
8:53 AM 52.0 °F - 36.0 °F 54% 29.77 in 10.0 mi NNW 10.4 mph - N/A   Overcast
9:53 AM 48.9 °F - 27.0 °F 43% 29.80 in - NNW 17.3 mph 28.8 mph N/A   Scattered Clouds
10:53 AM 48.0 °F - 18.0 °F 30% 29.83 in 10.0 mi NW 20.7 mph 34.5 mph N/A   Partly Cloudy
11:53 AM 48.2 °F - 17.6 °F 30% 29.85 in 10.0 mi NW 21.9 mph 29.9 mph N/A   Clear
12:53 PM 48.0 °F - 15.1 °F 27% 29.85 in 10.0 mi NW 19.6 mph 34.5 mph N/A   Clear
1:53 PM 48.0 °F - 12.0 °F 24% 29.86 in 10.0 mi NNW 21.9 mph 35.7 mph N/A   Clear
2:53 PM 46.9 °F - 10.9 °F 23% 29.86 in 10.0 mi NW 17.3 mph 27.6 mph N/A   Clear
3:53 PM 45.0 °F 36.6 °F 7.0 °F 21% 29.88 in 10.0 mi NNW 21.9 mph 34.5 mph N/A   Clear
4:53 PM 44.1 °F 36.8 °F 9.0 °F 24% 29.90 in 10.0 mi NNW 16.1 mph 32.2 mph N/A   Clear
5:53 PM 43.0 °F 37.2 °F 7.0 °F 23% 29.93 in 10.0 mi NNW 10.4 mph 24.2 mph N/A   Partly Cloudy
6:53 PM 39.9 °F 32.1 °F 5.0 °F 23% 29.97 in 10.0 mi NW 13.8 mph 29.9 mph N/A   Clear
7:53 PM 37.9 °F 28.2 °F 3.0 °F 23% 30.01 in 10.0 mi NW 18.4 mph 26.5 mph N/A   Clear
8:53 PM 36.0 °F 28.0 °F 6.1 °F 29% 30.05 in 10.0 mi NNW 11.5 mph 18.4 mph N/A   Clear
9:53 PM 36.0 °F 26.3 °F 1.9 °F 24% 30.08 in 10.0 mi NNW 16.1 mph 24.2 mph N/A   Clear
10:53 PM 35.1 °F 25.9 °F -0.0 °F 23% 30.09 in 10.0 mi NNW 13.8 mph 24.2 mph N/A   Clear
11:53 PM 33.1 °F 25.5 °F 1.9 °F 27% 30.11 in 10.0 mi NNW 9.2 mph - N/A   Clear